Time,TemperatureF,DewpointF,PressureIn,WindDirection,WindDirectionDegrees,WindSpeedMPH,WindSpeedGustMPH,Humidity,HourlyPrecipIn,Conditions,Clouds,dailyrainin,SoftwareType,DateUTC
2013-02-05 00:00:00,4.7,-1.5,29.90,SW,220,0.0,1.0,75,0.00,,---,0.00,VWS V14.00,2013-02-05 06:00:00,
2013-02-05 00:05:00,4.9,-1.3,29.90,West,263,0.0,2.0,75,0.00,,---,0.00,VWS V14.00,2013-02-05 06:05:00,
2013-02-05 00:10:00,5.2,-1.3,29.90,South,190,0.0,3.0,74,0.00,,---,0.00,VWS V14.00,2013-02-05 06:10:00,
2013-02-05 00:15:00,5.4,-1.4,29.90,SSW,203,0.0,4.0,73,0.00,,---,0.00,VWS V14.00,2013-02-05 06:15:00,
2013-02-05 00:20:00,5.6,-1.2,29.89,South,188,4.0,5.0,73,0.00,,---,0.00,VWS V14.00,2013-02-05 06:20:00,
2013-02-05 00:25:00,5.8,-1.0,29.89,South,186,0.0,5.0,73,0.00,,---,0.00,VWS V14.00,2013-02-05 06:25:00,
2013-02-05 00:30:00,6.0,-1.1,29.89,South,188,0.0,6.0,72,0.00,,---,0.00,VWS V14.00,2013-02-05 06:30:00,
2013-02-05 00:35:00,6.1,-1.0,29.89,SSE,157,0.0,2.0,72,0.00,,---,0.00,VWS V14.00,2013-02-05 06:35:00,
2013-02-05 00:40:00,6.2,-0.6,29.89,ESE,122,0.0,4.0,73,0.00,,---,0.00,VWS V14.00,2013-02-05 06:40:00,
2013-02-05 00:45:00,6.2,-0.3,29.88,ESE,123,3.0,5.0,74,0.00,,---,0.00,VWS V14.00,2013-02-05 06:45:00,
2013-02-05 00:50:00,6.2,0.0,29.87,SE,144,2.0,6.0,75,0.00,,---,0.00,VWS V14.00,2013-02-05 06:50:00,
2013-02-05 00:55:00,6.1,0.4,29.87,SSW,195,2.0,6.0,77,0.00,,---,0.00,VWS V14.00,2013-02-05 06:55:00,
2013-02-05 01:00:00,6.0,0.9,29.87,SSE,151,5.0,6.0,79,0.00,,---,0.00,VWS V14.00,2013-02-05 07:00:00,
2013-02-05 01:05:00,6.0,1.2,29.86,SE,138,1.0,4.0,80,0.00,,---,0.00,VWS V14.00,2013-02-05 07:05:00,
2013-02-05 01:10:00,6.0,1.4,29.86,ESE,108,2.0,6.0,81,0.00,,---,0.00,VWS V14.00,2013-02-05 07:10:00,
2013-02-05 01:15:00,6.0,1.7,29.85,SSE,153,1.0,6.0,82,0.00,,---,0.00,VWS V14.00,2013-02-05 07:15:00,
2013-02-05 01:20:00,6.1,2.1,29.84,SSE,162,3.0,5.0,83,0.00,,---,0.00,VWS V14.00,2013-02-05 07:20:00,
2013-02-05 01:25:00,6.0,2.0,29.84,SSE,154,4.0,6.0,83,0.00,,---,0.00,VWS V14.00,2013-02-05 07:25:00,
2013-02-05 01:30:00,6.1,2.3,29.84,SSE,152,0.0,10.0,84,0.00,,---,0.00,VWS V14.00,2013-02-05 07:30:00,
2013-02-05 01:35:00,6.1,2.6,29.83,South,169,0.0,3.0,85,0.00,,---,0.00,VWS V14.00,2013-02-05 07:35:00,
2013-02-05 01:40:00,6.2,2.7,29.83,South,180,2.0,5.0,85,0.00,,---,0.00,VWS V14.00,2013-02-05 07:40:00,
2013-02-05 01:45:00,6.1,2.6,29.83,SE,126,1.0,5.0,85,0.00,,---,0.00,VWS V14.00,2013-02-05 07:45:00,
2013-02-05 01:50:00,6.2,2.9,29.83,SSE,154,1.0,7.0,86,0.00,,---,0.00,VWS V14.00,2013-02-05 07:50:00,
2013-02-05 01:55:00,6.3,3.0,29.82,SSE,147,2.0,7.0,86,0.00,,---,0.00,VWS V14.00,2013-02-05 07:55:00,
2013-02-05 02:00:00,6.3,3.0,29.82,SSE,151,0.0,7.0,86,0.00,,---,0.00,VWS V14.00,2013-02-05 08:00:00,
2013-02-05 02:05:00,6.5,3.2,29.82,SE,135,3.0,10.0,86,0.00,,---,0.00,VWS V14.00,2013-02-05 08:05:00,
2013-02-05 02:10:00,6.6,3.3,29.82,SE,144,4.0,10.0,86,0.00,,---,0.00,VWS V14.00,2013-02-05 08:10:00,
2013-02-05 02:15:00,6.7,3.7,29.81,South,181,0.0,10.0,87,0.00,,---,0.00,VWS V14.00,2013-02-05 08:15:00,
2013-02-05 02:20:00,6.8,3.8,29.81,South,171,0.0,9.0,87,0.00,,---,0.00,VWS V14.00,2013-02-05 08:20:00,
2013-02-05 02:25:00,6.8,3.8,29.81,South,183,0.0,9.0,87,0.00,,---,0.00,VWS V14.00,2013-02-05 08:25:00,
2013-02-05 02:30:00,6.9,3.9,29.81,SW,218,5.0,9.0,87,0.00,,---,0.00,VWS V14.00,2013-02-05 08:30:00,
2013-02-05 02:35:00,7.1,4.1,29.80,South,170,4.0,6.0,87,0.00,,---,0.00,VWS V14.00,2013-02-05 08:35:00,
2013-02-05 02:40:00,7.2,4.2,29.80,SSE,168,2.0,7.0,87,0.00,,---,0.00,VWS V14.00,2013-02-05 08:40:00,
2013-02-05 02:45:00,7.2,4.2,29.80,SSE,157,1.0,7.0,87,0.00,,---,0.00,VWS V14.00,2013-02-05 08:45:00,
2013-02-05 02:50:00,7.2,4.2,29.80,South,176,1.0,4.0,87,0.00,,---,0.00,VWS V14.00,2013-02-05 08:50:00,
2013-02-05 02:55:00,7.2,4.2,29.79,SE,132,1.0,6.0,87,0.00,,---,0.00,VWS V14.00,2013-02-05 08:55:00,
2013-02-05 03:00:00,7.2,4.2,29.79,South,180,2.0,7.0,87,0.00,,---,0.00,VWS V14.00,2013-02-05 09:00:00,
2013-02-05 03:05:00,7.2,4.2,29.79,SSE,155,3.0,5.0,87,0.00,,---,0.00,VWS V14.00,2013-02-05 09:05:00,
2013-02-05 03:10:00,7.3,4.2,29.79,SSE,153,4.0,5.0,87,0.00,,---,0.00,VWS V14.00,2013-02-05 09:10:00,
2013-02-05 03:15:00,7.4,4.3,29.79,SSW,207,4.0,10.0,87,0.00,,---,0.00,VWS V14.00,2013-02-05 09:15:00,
2013-02-05 03:20:00,7.4,4.6,29.78,SSE,161,4.0,9.0,88,0.00,,---,0.00,VWS V14.00,2013-02-05 09:20:00,
2013-02-05 03:25:00,7.5,4.4,29.78,SSE,163,3.0,9.0,87,0.00,,---,0.00,VWS V14.00,2013-02-05 09:25:00,
2013-02-05 03:30:00,7.5,4.4,29.77,SSE,147,0.0,9.0,87,0.00,,---,0.00,VWS V14.00,2013-02-05 09:30:00,
2013-02-05 03:35:00,7.5,4.4,29.77,SE,134,4.0,4.0,87,0.00,,---,0.00,VWS V14.00,2013-02-05 09:35:00,
2013-02-05 03:40:00,7.6,4.6,29.77,ESE,112,2.0,11.0,87,0.00,,---,0.00,VWS V14.00,2013-02-05 09:40:00,
2013-02-05 03:45:00,7.6,4.6,29.76,ESE,119,2.0,11.0,87,0.00,,---,0.00,VWS V14.00,2013-02-05 09:45:00,
2013-02-05 03:50:00,7.7,4.7,29.77,SSW,192,1.0,5.0,87,0.00,,---,0.00,VWS V14.00,2013-02-05 09:50:00,
2013-02-05 03:55:00,7.7,4.7,29.76,South,171,0.0,5.0,87,0.00,,---,0.00,VWS V14.00,2013-02-05 09:55:00,
2013-02-05 04:00:00,7.8,4.7,29.76,South,171,0.0,9.0,87,0.00,,---,0.00,VWS V14.00,2013-02-05 10:00:00,
2013-02-05 04:05:00,7.9,4.8,29.75,South,173,2.0,7.0,87,0.00,,---,0.00,VWS V14.00,2013-02-05 10:05:00,
2013-02-05 04:10:00,8.0,4.9,29.75,SE,134,0.0,7.0,87,0.00,,---,0.00,VWS V14.00,2013-02-05 10:10:00,
2013-02-05 04:15:00,8.0,4.9,29.75,South,180,0.0,7.0,87,0.00,,---,0.00,VWS V14.00,2013-02-05 10:15:00,
2013-02-05 04:20:00,8.1,5.0,29.75,SSE,161,2.0,5.0,87,0.00,,---,0.00,VWS V14.00,2013-02-05 10:20:00,
2013-02-05 04:25:00,8.1,5.0,29.75,SE,144,1.0,5.0,87,0.00,,---,0.00,VWS V14.00,2013-02-05 10:25:00,
2013-02-05 04:30:00,8.2,5.4,29.75,SSE,151,2.0,6.0,88,0.00,,---,0.00,VWS V14.00,2013-02-05 10:30:00,
2013-02-05 04:35:00,8.3,5.5,29.75,SE,139,4.0,4.0,88,0.00,,---,0.00,VWS V14.00,2013-02-05 10:35:00,
2013-02-05 04:40:00,8.3,5.5,29.74,SSE,156,0.0,5.0,88,0.00,,---,0.00,VWS V14.00,2013-02-05 10:40:00,
2013-02-05 04:45:00,8.4,5.6,29.74,SSE,147,2.0,5.0,88,0.00,,---,0.00,VWS V14.00,2013-02-05 10:45:00,
2013-02-05 04:50:00,8.4,5.6,29.74,SSE,163,0.0,2.0,88,0.00,,---,0.00,VWS V14.00,2013-02-05 10:50:00,
2013-02-05 04:55:00,8.5,5.7,29.74,SE,132,3.0,4.0,88,0.00,,---,0.00,VWS V14.00,2013-02-05 10:55:00,
2013-02-05 05:00:00,8.6,5.8,29.74,SE,133,0.0,6.0,88,0.00,,---,0.00,VWS V14.00,2013-02-05 11:00:00,
2013-02-05 05:05:00,8.6,5.8,29.74,SE,145,1.0,3.0,88,0.00,,---,0.00,VWS V14.00,2013-02-05 11:05:00,
2013-02-05 05:10:00,8.7,5.9,29.73,South,182,0.0,4.0,88,0.00,,---,0.00,VWS V14.00,2013-02-05 11:10:00,
2013-02-05 05:15:00,8.8,6.0,29.73,SE,144,1.0,5.0,88,0.00,,---,0.00,VWS V14.00,2013-02-05 11:15:00,
2013-02-05 05:20:00,8.9,6.1,29.73,SE,144,2.0,4.0,88,0.00,,---,0.00,VWS V14.00,2013-02-05 11:20:00,
2013-02-05 05:25:00,9.0,6.4,29.73,SE,144,0.0,4.0,89,0.00,,---,0.00,VWS V14.00,2013-02-05 11:25:00,
2013-02-05 05:30:00,9.2,6.6,29.73,South,171,0.0,4.0,89,0.00,,---,0.00,VWS V14.00,2013-02-05 11:30:00,
2013-02-05 05:35:00,9.2,6.6,29.73,South,171,0.0,0.0,89,0.00,,---,0.00,VWS V14.00,2013-02-05 11:35:00,
2013-02-05 05:40:00,9.3,6.7,29.73,SSE,163,0.0,2.0,89,0.00,,---,0.00,VWS V14.00,2013-02-05 11:40:00,
2013-02-05 05:45:00,9.4,6.8,29.73,SSE,163,0.0,2.0,89,0.00,,---,0.00,VWS V14.00,2013-02-05 11:45:00,
2013-02-05 05:50:00,9.4,6.8,29.73,SSE,164,0.0,0.0,89,0.00,,---,0.00,VWS V14.00,2013-02-05 11:50:00,
2013-02-05 05:55:00,9.5,6.9,29.73,SSE,161,0.0,3.0,89,0.00,,---,0.00,VWS V14.00,2013-02-05 11:55:00,
2013-02-05 06:00:00,9.6,7.0,29.73,SW,219,0.0,5.0,89,0.00,,---,0.00,VWS V14.00,2013-02-05 12:00:00,
2013-02-05 06:05:00,9.7,7.1,29.73,SW,219,0.0,0.0,89,0.00,,---,0.00,VWS V14.00,2013-02-05 12:05:00,
2013-02-05 06:10:00,9.8,7.2,29.73,SE,146,0.0,3.0,89,0.00,,---,0.00,VWS V14.00,2013-02-05 12:10:00,
2013-02-05 06:15:00,9.9,7.6,29.73,SW,227,0.0,3.0,90,0.00,,---,0.00,VWS V14.00,2013-02-05 12:15:00,
2013-02-05 06:20:00,10.1,7.8,29.73,SW,219,1.0,2.0,90,0.00,,---,0.00,VWS V14.00,2013-02-05 12:20:00,
2013-02-05 06:25:00,10.3,8.0,29.73,SE,139,2.0,3.0,90,0.00,,---,0.00,VWS V14.00,2013-02-05 12:25:00,
2013-02-05 06:30:00,10.5,8.1,29.73,SSE,167,0.0,3.0,90,0.00,,---,0.00,VWS V14.00,2013-02-05 12:30:00,
2013-02-05 06:35:00,10.8,8.4,29.73,SSW,211,0.0,2.0,90,0.00,,---,0.00,VWS V14.00,2013-02-05 12:35:00,
2013-02-05 06:40:00,11.0,8.9,29.73,SW,217,0.0,4.0,91,0.00,,---,0.00,VWS V14.00,2013-02-05 12:40:00,
2013-02-05 06:45:00,11.2,9.1,29.73,SSW,211,1.0,4.0,91,0.00,,---,0.00,VWS V14.00,2013-02-05 12:45:00,
2013-02-05 06:50:00,11.3,8.9,29.73,SW,234,1.0,1.0,90,0.00,,---,0.00,VWS V14.00,2013-02-05 12:50:00,
2013-02-05 06:55:00,11.4,9.3,29.73,SE,143,2.0,6.0,91,0.00,,---,0.00,VWS V14.00,2013-02-05 12:55:00,
2013-02-05 07:00:00,11.5,9.4,29.73,SSW,193,0.0,6.0,91,0.00,,---,0.00,VWS V14.00,2013-02-05 13:00:00,
2013-02-05 07:05:00,11.6,9.5,29.73,SSW,200,0.0,2.0,91,0.00,,---,0.00,VWS V14.00,2013-02-05 13:05:00,
2013-02-05 07:10:00,11.6,9.2,29.73,SW,215,3.0,3.0,90,0.00,,---,0.00,VWS V14.00,2013-02-05 13:10:00,
2013-02-05 07:15:00,11.7,9.3,29.73,WSW,239,0.0,6.0,90,0.00,,---,0.00,VWS V14.00,2013-02-05 13:15:00,
2013-02-05 07:20:00,11.7,9.3,29.73,SSE,165,0.0,1.0,90,0.00,,---,0.00,VWS V14.00,2013-02-05 13:20:00,
2013-02-05 07:25:00,11.8,9.4,29.73,SSW,204,0.0,2.0,90,0.00,,---,0.00,VWS V14.00,2013-02-05 13:25:00,
2013-02-05 07:30:00,11.8,9.7,29.73,SSW,209,0.0,2.0,91,0.00,,---,0.00,VWS V14.00,2013-02-05 13:30:00,
2013-02-05 07:35:00,11.9,9.8,29.73,SW,235,1.0,3.0,91,0.00,,---,0.00,VWS V14.00,2013-02-05 13:35:00,
2013-02-05 07:40:00,11.9,9.8,29.73,SW,228,0.0,3.0,91,0.00,,---,0.00,VWS V14.00,2013-02-05 13:40:00,
2013-02-05 07:45:00,12.0,9.6,29.73,South,181,1.0,3.0,90,0.00,,---,0.00,VWS V14.00,2013-02-05 13:45:00,
2013-02-05 07:50:00,12.0,9.6,29.74,SSE,155,0.0,3.0,90,0.00,,---,0.00,VWS V14.00,2013-02-05 13:50:00,
2013-02-05 07:55:00,12.1,9.7,29.74,South,188,0.0,3.0,90,0.00,,---,0.00,VWS V14.00,2013-02-05 13:55:00,
2013-02-05 08:00:00,12.2,9.8,29.74,SSW,213,0.0,3.0,90,0.00,,---,0.00,VWS V14.00,2013-02-05 14:00:00,
2013-02-05 08:05:00,12.3,9.9,29.74,SW,229,0.0,1.0,90,0.00,,---,0.00,VWS V14.00,2013-02-05 14:05:00,
2013-02-05 08:10:00,12.3,9.9,29.75,SW,229,0.0,2.0,90,0.00,,---,0.00,VWS V14.00,2013-02-05 14:10:00,
2013-02-05 08:15:00,12.5,10.1,29.75,South,169,0.0,3.0,90,0.00,,---,0.00,VWS V14.00,2013-02-05 14:15:00,
2013-02-05 08:20:00,12.5,10.1,29.75,West,275,0.0,2.0,90,0.00,,---,0.00,VWS V14.00,2013-02-05 14:20:00,
2013-02-05 08:25:00,12.6,10.2,29.75,WSW,244,3.0,3.0,90,0.00,,---,0.00,VWS V14.00,2013-02-05 14:25:00,
2013-02-05 08:30:00,12.7,10.3,29.75,SW,235,0.0,3.0,90,0.00,,---,0.00,VWS V14.00,2013-02-05 14:30:00,
2013-02-05 08:35:00,12.8,10.4,29.75,WSW,243,3.0,3.0,90,0.00,,---,0.00,VWS V14.00,2013-02-05 14:35:00,
2013-02-05 08:40:00,12.8,10.4,29.75,SW,232,2.0,4.0,90,0.00,,---,0.00,VWS V14.00,2013-02-05 14:40:00,
2013-02-05 08:45:00,12.9,10.5,29.75,West,273,2.0,4.0,90,0.00,,---,0.00,VWS V14.00,2013-02-05 14:45:00,
2013-02-05 08:50:00,13.0,10.6,29.76,West,259,1.0,4.0,90,0.00,,---,0.00,VWS V14.00,2013-02-05 14:50:00,
2013-02-05 08:55:00,13.0,10.6,29.76,West,265,1.0,4.0,90,0.00,,---,0.00,VWS V14.00,2013-02-05 14:55:00,
2013-02-05 09:00:00,13.0,10.6,29.76,West,265,1.0,4.0,90,0.00,,---,0.00,VWS V14.00,2013-02-05 15:00:00,
2013-02-05 09:05:00,13.1,10.7,29.76,WSW,247,2.0,3.0,90,0.00,,---,0.00,VWS V14.00,2013-02-05 15:05:00,
2013-02-05 09:10:00,13.2,10.8,29.76,WSW,242,0.0,3.0,90,0.00,,---,0.00,VWS V14.00,2013-02-05 15:10:00,
2013-02-05 09:15:00,13.4,11.0,29.76,South,188,1.0,3.0,90,0.00,,---,0.00,VWS V14.00,2013-02-05 15:15:00,
2013-02-05 09:20:00,13.5,11.1,29.76,SSW,199,0.0,0.0,90,0.00,,---,0.00,VWS V14.00,2013-02-05 15:20:00,
2013-02-05 09:25:00,13.6,11.2,29.76,SSW,202,2.0,2.0,90,0.00,,---,0.00,VWS V14.00,2013-02-05 15:25:00,
2013-02-05 09:30:00,13.8,11.4,29.76,WSW,238,0.0,3.0,90,0.00,,---,0.00,VWS V14.00,2013-02-05 15:30:00,
2013-02-05 09:35:00,14.0,11.6,29.76,SW,234,0.0,3.0,90,0.00,,---,0.00,VWS V14.00,2013-02-05 15:35:00,
2013-02-05 09:40:00,14.1,11.7,29.77,SW,229,4.0,7.0,90,0.00,,---,0.00,VWS V14.00,2013-02-05 15:40:00,
2013-02-05 09:45:00,14.3,11.7,29.77,West,275,2.0,7.0,89,0.00,,---,0.00,VWS V14.00,2013-02-05 15:45:00,
2013-02-05 09:50:00,14.4,11.8,29.77,SW,233,1.0,2.0,89,0.00,,---,0.00,VWS V14.00,2013-02-05 15:50:00,
2013-02-05 09:55:00,14.6,11.9,29.77,WSW,258,4.0,5.0,89,0.00,,---,0.00,VWS V14.00,2013-02-05 15:55:00,
2013-02-05 10:00:00,14.8,12.1,29.77,WNW,286,3.0,5.0,89,0.00,,---,0.00,VWS V14.00,2013-02-05 16:00:00,
2013-02-05 10:05:00,15.0,12.4,29.77,WNW,302,1.0,3.0,89,0.00,,---,0.00,VWS V14.00,2013-02-05 16:05:00,
2013-02-05 10:10:00,15.2,12.3,29.78,SW,215,0.0,4.0,88,0.00,,---,0.00,VWS V14.00,2013-02-05 16:10:00,
2013-02-05 10:15:00,15.3,12.4,29.78,West,273,1.0,4.0,88,0.00,,---,0.00,VWS V14.00,2013-02-05 16:15:00,
2013-02-05 10:20:00,15.4,12.5,29.78,SW,235,0.0,4.0,88,0.00,,---,0.00,VWS V14.00,2013-02-05 16:20:00,
2013-02-05 10:25:00,15.4,12.5,29.79,WSW,244,0.0,4.0,88,0.00,,---,0.00,VWS V14.00,2013-02-05 16:25:00,
2013-02-05 10:30:00,15.6,12.7,29.79,West,272,0.0,4.0,88,0.00,,---,0.00,VWS V14.00,2013-02-05 16:30:00,
2013-02-05 10:35:00,15.9,13.0,29.79,SSW,196,0.0,3.0,88,0.00,,---,0.00,VWS V14.00,2013-02-05 16:35:00,
2013-02-05 10:40:00,16.0,12.8,29.80,WNW,291,0.0,5.0,87,0.00,,---,0.00,VWS V14.00,2013-02-05 16:40:00,
2013-02-05 10:45:00,16.1,12.9,29.80,WSW,245,2.0,5.0,87,0.00,,---,0.00,VWS V14.00,2013-02-05 16:45:00,
2013-02-05 10:50:00,16.2,13.0,29.80,South,179,0.0,3.0,87,0.00,,---,0.00,VWS V14.00,2013-02-05 16:50:00,
2013-02-05 10:55:00,16.4,13.2,29.80,WNW,298,1.0,3.0,87,0.00,,---,0.00,VWS V14.00,2013-02-05 16:55:00,
2013-02-05 11:00:00,16.5,13.1,29.80,WSW,237,7.0,7.0,86,0.00,,---,0.00,VWS V14.00,2013-02-05 17:00:00,
2013-02-05 11:05:00,16.6,13.1,29.80,West,261,2.0,5.0,86,0.00,,---,0.00,VWS V14.00,2013-02-05 17:05:00,
2013-02-05 11:10:00,16.7,13.2,29.81,WNW,302,0.0,5.0,86,0.00,,---,0.00,VWS V14.00,2013-02-05 17:10:00,
2013-02-05 11:15:00,16.8,13.4,29.81,West,281,2.0,5.0,86,0.00,,---,0.00,VWS V14.00,2013-02-05 17:15:00,
2013-02-05 11:20:00,16.9,13.4,29.81,West,265,3.0,4.0,86,0.00,,---,0.00,VWS V14.00,2013-02-05 17:20:00,
2013-02-05 11:30:00,16.6,12.6,29.82,SW,222,6.0,8.0,84,0.00,,---,0.00,VWS V14.00,2013-02-05 17:30:00,
2013-02-05 11:35:00,16.4,12.4,29.83,WSW,243,7.0,9.0,84,0.00,,---,0.00,VWS V14.00,2013-02-05 17:35:00,
2013-02-05 11:40:00,16.3,12.3,29.83,West,281,1.0,11.0,84,0.00,,---,0.00,VWS V14.00,2013-02-05 17:40:00,
2013-02-05 11:45:00,16.2,12.2,29.83,WSW,258,3.0,11.0,84,0.00,,---,0.00,VWS V14.00,2013-02-05 17:45:00,
2013-02-05 11:50:00,16.2,12.2,29.83,WSW,243,2.0,6.0,84,0.00,,---,0.00,VWS V14.00,2013-02-05 17:50:00,
2013-02-05 11:55:00,16.2,12.0,29.83,SW,229,6.0,9.0,83,0.00,,---,0.00,VWS V14.00,2013-02-05 17:55:00,
2013-02-05 12:00:00,16.3,12.3,29.83,West,280,2.0,10.0,84,0.00,,---,0.00,VWS V14.00,2013-02-05 18:00:00,
2013-02-05 12:05:00,16.6,12.4,29.83,West,261,0.0,15.0,83,0.00,,---,0.00,VWS V14.00,2013-02-05 18:05:00,
2013-02-05 12:10:00,16.7,12.4,29.83,SSW,206,3.0,15.0,83,0.00,,---,0.00,VWS V14.00,2013-02-05 18:10:00,
2013-02-05 12:15:00,17.0,12.7,29.83,WSW,248,2.0,15.0,83,0.00,,---,0.00,VWS V14.00,2013-02-05 18:15:00,
2013-02-05 12:20:00,17.3,12.8,29.83,West,277,4.0,7.0,82,0.00,,---,0.00,VWS V14.00,2013-02-05 18:20:00,
2013-02-05 12:25:00,17.5,12.9,29.83,West,272,1.0,9.0,82,0.00,,---,0.00,VWS V14.00,2013-02-05 18:25:00,
2013-02-05 12:30:00,17.8,13.0,29.83,SW,236,4.0,10.0,81,0.00,,---,0.00,VWS V14.00,2013-02-05 18:30:00,
2013-02-05 12:35:00,17.7,12.9,29.83,West,262,1.0,5.0,81,0.00,,---,0.00,VWS V14.00,2013-02-05 18:35:00,
2013-02-05 12:40:00,18.1,13.8,29.84,WNW,296,0.0,6.0,83,0.00,,---,0.00,VWS V14.00,2013-02-05 18:40:00,
2013-02-05 12:45:00,18.4,13.8,29.84,WSW,254,3.0,6.0,82,0.00,,---,0.00,VWS V14.00,2013-02-05 18:45:00,
2013-02-05 12:50:00,18.6,13.8,29.85,West,270,5.0,8.0,81,0.00,,---,0.00,VWS V14.00,2013-02-05 18:50:00,
2013-02-05 12:55:00,18.8,14.2,29.84,WNW,303,4.0,8.0,82,0.00,,---,0.00,VWS V14.00,2013-02-05 18:55:00,
2013-02-05 13:00:00,19.2,14.3,29.85,WSW,250,2.0,8.0,81,0.00,,---,0.00,VWS V14.00,2013-02-05 19:00:00,
2013-02-05 13:05:00,19.4,14.2,29.85,WSW,237,9.0,9.0,80,0.00,,---,0.00,VWS V14.00,2013-02-05 19:05:00,
2013-02-05 13:10:00,19.2,14.1,29.85,SW,233,1.0,10.0,80,0.00,,---,0.00,VWS V14.00,2013-02-05 19:10:00,
2013-02-05 13:15:00,19.1,14.2,29.86,East,92,1.0,10.0,81,0.00,,---,0.00,VWS V14.00,2013-02-05 19:15:00,
2013-02-05 13:20:00,19.0,14.1,29.86,WNW,282,3.0,9.0,81,0.00,,---,0.00,VWS V14.00,2013-02-05 19:20:00,
2013-02-05 13:25:00,18.9,14.0,29.86,West,277,2.0,9.0,81,0.00,,---,0.00,VWS V14.00,2013-02-05 19:25:00,
2013-02-05 13:30:00,18.9,14.3,29.86,West,264,4.0,9.0,82,0.00,,---,0.00,VWS V14.00,2013-02-05 19:30:00,
2013-02-05 13:35:00,18.8,14.5,29.87,West,276,3.0,11.0,83,0.00,,---,0.00,VWS V14.00,2013-02-05 19:35:00,
2013-02-05 13:40:00,18.8,14.2,29.87,WSW,252,0.0,11.0,82,0.00,,---,0.00,VWS V14.00,2013-02-05 19:40:00,
2013-02-05 13:45:00,18.7,14.4,29.87,NW,313,3.0,11.0,83,0.00,,---,0.00,VWS V14.00,2013-02-05 19:45:00,
2013-02-05 13:50:00,18.6,14.0,29.88,WSW,254,2.0,10.0,82,0.00,,---,0.00,VWS V14.00,2013-02-05 19:50:00,
2013-02-05 13:55:00,18.4,14.1,29.88,West,269,0.0,10.0,83,0.00,,---,0.00,VWS V14.00,2013-02-05 19:55:00,
2013-02-05 14:00:00,18.4,14.4,29.88,SE,132,2.0,10.0,84,0.00,,---,0.00,VWS V14.00,2013-02-05 20:00:00,
2013-02-05 14:05:00,18.4,14.4,29.88,NW,317,2.0,3.0,84,0.00,,---,0.00,VWS V14.00,2013-02-05 20:05:00,
2013-02-05 14:10:00,18.4,14.1,29.88,West,269,2.0,10.0,83,0.00,,---,0.00,VWS V14.00,2013-02-05 20:10:00,
2013-02-05 14:15:00,18.2,14.2,29.89,WNW,294,2.0,10.0,84,0.00,,---,0.00,VWS V14.00,2013-02-05 20:15:00,
2013-02-05 14:20:00,18.1,14.1,29.89,WNW,300,1.0,6.0,84,0.00,,---,0.00,VWS V14.00,2013-02-05 20:20:00,
2013-02-05 14:25:00,18.1,13.8,29.89,West,281,3.0,10.0,83,0.00,,---,0.00,VWS V14.00,2013-02-05 20:25:00,
2013-02-05 14:30:00,17.9,14.2,29.89,West,264,1.0,10.0,85,0.00,,---,0.00,VWS V14.00,2013-02-05 20:30:00,
2013-02-05 14:35:00,17.8,14.1,29.89,West,261,3.0,5.0,85,0.00,,---,0.00,VWS V14.00,2013-02-05 20:35:00,
2013-02-05 14:40:00,17.7,14.0,29.89,West,281,2.0,6.0,85,0.00,,---,0.00,VWS V14.00,2013-02-05 20:40:00,
2013-02-05 14:45:00,17.8,14.3,29.90,NW,323,1.0,6.0,86,0.00,,---,0.00,VWS V14.00,2013-02-05 20:45:00,
2013-02-05 14:50:00,17.8,14.3,29.91,West,273,1.0,3.0,86,0.00,,---,0.00,VWS V14.00,2013-02-05 20:50:00,
2013-02-05 14:55:00,17.9,14.4,29.91,West,271,0.0,6.0,86,0.00,,---,0.00,VWS V14.00,2013-02-05 20:55:00,
2013-02-05 15:00:00,17.9,14.4,29.91,WSW,237,3.0,6.0,86,0.00,,---,0.00,VWS V14.00,2013-02-05 21:00:00,
2013-02-05 15:05:00,17.9,14.4,29.91,West,269,2.0,6.0,86,0.00,,---,0.00,VWS V14.00,2013-02-05 21:05:00,
2013-02-05 15:10:00,17.8,14.3,29.91,WSW,243,2.0,6.0,86,0.00,,---,0.00,VWS V14.00,2013-02-05 21:10:00,
2013-02-05 15:15:00,17.7,14.2,29.92,South,186,5.0,6.0,86,0.00,,---,0.00,VWS V14.00,2013-02-05 21:15:00,
2013-02-05 15:20:00,17.6,14.1,29.92,NW,323,1.0,5.0,86,0.00,,---,0.00,VWS V14.00,2013-02-05 21:20:00,
2013-02-05 15:25:00,17.4,13.9,29.92,West,269,0.0,6.0,86,0.00,,---,0.00,VWS V14.00,2013-02-05 21:25:00,
2013-02-05 15:30:00,17.3,13.6,29.92,WSW,250,4.0,10.0,85,0.00,,---,0.00,VWS V14.00,2013-02-05 21:30:00,
2013-02-05 15:35:00,17.2,13.7,29.93,WNW,294,3.0,5.0,86,0.00,,---,0.00,VWS V14.00,2013-02-05 21:35:00,
2013-02-05 15:40:00,17.1,13.6,29.93,East,81,0.0,5.0,86,0.00,,---,0.00,VWS V14.00,2013-02-05 21:40:00,
2013-02-05 15:45:00,17.0,13.5,29.93,NW,304,1.0,5.0,86,0.00,,---,0.00,VWS V14.00,2013-02-05 21:45:00,
2013-02-05 15:50:00,17.1,13.6,29.94,SW,221,1.0,1.0,86,0.00,,---,0.00,VWS V14.00,2013-02-05 21:50:00,
2013-02-05 15:55:00,17.0,13.3,29.94,NNW,333,0.0,6.0,85,0.00,,---,0.00,VWS V14.00,2013-02-05 21:55:00,
2013-02-05 16:00:00,17.1,13.4,29.94,NW,307,0.0,6.0,85,0.00,,---,0.00,VWS V14.00,2013-02-05 22:00:00,
2013-02-05 16:05:00,17.1,13.4,29.95,West,280,1.0,11.0,85,0.00,,---,0.00,VWS V14.00,2013-02-05 22:05:00,
2013-02-05 16:10:00,16.9,12.9,29.95,SW,217,3.0,11.0,84,0.00,,---,0.00,VWS V14.00,2013-02-05 22:10:00,
2013-02-05 16:15:00,16.7,12.7,29.95,SW,234,2.0,11.0,84,0.00,,---,0.00,VWS V14.00,2013-02-05 22:15:00,
2013-02-05 16:20:00,16.5,12.2,29.96,WSW,240,4.0,5.0,83,0.00,,---,0.00,VWS V14.00,2013-02-05 22:20:00,
2013-02-05 16:25:00,16.3,12.1,29.96,WSW,248,0.0,6.0,83,0.00,,---,0.00,VWS V14.00,2013-02-05 22:25:00,
2013-02-05 16:30:00,16.1,11.9,29.96,West,261,1.0,10.0,83,0.00,,---,0.00,VWS V14.00,2013-02-05 22:30:00,
2013-02-05 16:35:00,16.0,12.0,29.96,SW,225,3.0,5.0,84,0.00,,---,0.00,VWS V14.00,2013-02-05 22:35:00,
2013-02-05 16:40:00,15.8,11.6,29.96,WSW,242,0.0,6.0,83,0.00,,---,0.00,VWS V14.00,2013-02-05 22:40:00,
2013-02-05 16:45:00,15.5,11.0,29.97,SW,235,2.0,8.0,82,0.00,,---,0.00,VWS V14.00,2013-02-05 22:45:00,
2013-02-05 16:50:00,15.3,10.8,29.97,West,278,4.0,4.0,82,0.00,,---,0.00,VWS V14.00,2013-02-05 22:50:00,
2013-02-05 16:55:00,15.1,10.6,29.98,East,93,0.0,4.0,82,0.00,,---,0.00,VWS V14.00,2013-02-05 22:55:00,
2013-02-05 17:00:00,14.9,10.4,29.98,WSW,242,0.0,4.0,82,0.00,,---,0.00,VWS V14.00,2013-02-05 23:00:00,
2013-02-05 17:05:00,14.6,10.1,29.99,SW,231,0.0,2.0,82,0.00,,---,0.00,VWS V14.00,2013-02-05 23:05:00,
2013-02-05 17:10:00,14.3,9.8,29.99,SW,231,0.0,2.0,82,0.00,,---,0.00,VWS V14.00,2013-02-05 23:10:00,
2013-02-05 17:15:00,14.1,9.6,29.99,SW,231,0.0,2.0,82,0.00,,---,0.00,VWS V14.00,2013-02-05 23:15:00,
2013-02-05 17:20:00,13.9,9.4,30.00,SW,231,0.0,1.0,82,0.00,,---,0.00,VWS V14.00,2013-02-05 23:20:00,
2013-02-05 17:25:00,13.6,9.4,30.00,SW,231,0.0,1.0,83,0.00,,---,0.00,VWS V14.00,2013-02-05 23:25:00,
2013-02-05 17:30:00,13.5,9.6,30.00,SSW,209,0.0,3.0,84,0.00,,---,0.00,VWS V14.00,2013-02-05 23:30:00,
2013-02-05 17:35:00,13.4,9.5,30.00,SSW,209,0.0,0.0,84,0.00,,---,0.00,VWS V14.00,2013-02-05 23:35:00,
2013-02-05 17:40:00,13.2,9.3,30.00,WSW,254,0.0,5.0,84,0.00,,---,0.00,VWS V14.00,2013-02-05 23:40:00,
2013-02-05 17:45:00,13.0,9.1,30.00,WSW,254,0.0,5.0,84,0.00,,---,0.00,VWS V14.00,2013-02-05 23:45:00,
2013-02-05 17:50:00,12.7,8.8,30.00,WSW,254,0.0,2.0,84,0.00,,---,0.00,VWS V14.00,2013-02-05 23:50:00,
2013-02-05 17:55:00,12.5,8.9,30.00,WSW,254,0.0,2.0,85,0.00,,---,0.00,VWS V14.00,2013-02-05 23:55:00,
2013-02-05 18:00:00,12.3,8.7,30.00,WSW,254,0.0,2.0,85,0.00,,---,0.00,VWS V14.00,2013-02-06 00:00:00,
2013-02-05 18:05:00,12.0,8.4,30.00,WSW,254,0.0,0.0,85,0.00,,---,0.00,VWS V14.00,2013-02-06 00:05:00,
2013-02-05 18:10:00,11.7,8.1,30.01,WSW,254,0.0,0.0,85,0.00,,---,0.00,VWS V14.00,2013-02-06 00:10:00,
2013-02-05 18:15:00,11.4,7.8,30.01,WSW,254,0.0,0.0,85,0.00,,---,0.00,VWS V14.00,2013-02-06 00:15:00,
2013-02-05 18:20:00,11.0,7.4,30.01,WSW,254,0.0,0.0,85,0.00,,---,0.00,VWS V14.00,2013-02-06 00:20:00,
2013-02-05 18:25:00,10.5,6.9,30.01,WSW,254,0.0,0.0,85,0.00,,---,0.00,VWS V14.00,2013-02-06 00:25:00,
2013-02-05 18:30:00,10.0,6.4,30.01,WSW,254,0.0,0.0,85,0.00,,---,0.00,VWS V14.00,2013-02-06 00:30:00,
2013-02-05 18:35:00,9.6,6.0,30.01,WSW,254,0.0,0.0,85,0.00,,---,0.00,VWS V14.00,2013-02-06 00:35:00,
2013-02-05 18:40:00,9.1,5.8,30.02,WSW,254,0.0,0.0,86,0.00,,---,0.00,VWS V14.00,2013-02-06 00:40:00,
2013-02-05 18:45:00,8.7,5.6,30.02,WSW,254,0.0,0.0,87,0.00,,---,0.00,VWS V14.00,2013-02-06 00:45:00,
2013-02-05 18:50:00,8.4,5.3,30.02,WSW,254,0.0,0.0,87,0.00,,---,0.00,VWS V14.00,2013-02-06 00:50:00,
2013-02-05 18:55:00,8.2,5.1,30.02,WSW,254,0.0,0.0,87,0.00,,---,0.00,VWS V14.00,2013-02-06 00:55:00,
2013-02-05 19:00:00,7.9,4.8,30.02,WSW,254,0.0,0.0,87,0.00,,---,0.00,VWS V14.00,2013-02-06 01:00:00,
2013-02-05 19:05:00,7.6,4.3,30.02,WSW,254,0.0,0.0,86,0.00,,---,0.00,VWS V14.00,2013-02-06 01:05:00,
2013-02-05 19:10:00,7.2,4.2,30.03,WSW,254,0.0,0.0,87,0.00,,---,0.00,VWS V14.00,2013-02-06 01:10:00,
2013-02-05 19:15:00,6.9,3.9,30.03,WSW,254,0.0,0.0,87,0.00,,---,0.00,VWS V14.00,2013-02-06 01:15:00,
2013-02-05 19:20:00,6.7,3.7,30.02,WSW,254,0.0,0.0,87,0.00,,---,0.00,VWS V14.00,2013-02-06 01:20:00,
2013-02-05 19:25:00,6.4,3.4,30.03,WSW,254,0.0,0.0,87,0.00,,---,0.00,VWS V14.00,2013-02-06 01:25:00,
2013-02-05 19:30:00,6.2,3.2,30.03,WSW,254,0.0,1.0,87,0.00,,---,0.00,VWS V14.00,2013-02-06 01:30:00,
2013-02-05 19:35:00,6.1,3.3,30.04,WSW,254,0.0,0.0,88,0.00,,---,0.00,VWS V14.00,2013-02-06 01:35:00,
2013-02-05 19:40:00,5.9,2.9,30.04,WSW,254,0.0,0.0,87,0.00,,---,0.00,VWS V14.00,2013-02-06 01:40:00,
2013-02-05 19:45:00,5.6,2.6,30.04,WSW,254,0.0,0.0,87,0.00,,---,0.00,VWS V14.00,2013-02-06 01:45:00,
2013-02-05 19:50:00,5.4,2.4,30.04,WSW,254,0.0,0.0,87,0.00,,---,0.00,VWS V14.00,2013-02-06 01:50:00,
2013-02-05 19:55:00,5.1,2.1,30.04,WSW,254,0.0,0.0,87,0.00,,---,0.00,VWS V14.00,2013-02-06 01:55:00,
2013-02-05 20:00:00,4.9,1.9,30.04,WSW,254,0.0,0.0,87,0.00,,---,0.00,VWS V14.00,2013-02-06 02:00:00,
2013-02-05 20:05:00,4.6,1.3,30.04,WSW,254,0.0,0.0,86,0.00,,---,0.00,VWS V14.00,2013-02-06 02:05:00,
2013-02-05 20:10:00,4.4,1.1,30.04,WSW,254,0.0,0.0,86,0.00,,---,0.00,VWS V14.00,2013-02-06 02:10:00,
2013-02-05 20:15:00,4.1,0.9,30.05,WSW,254,0.0,0.0,86,0.00,,---,0.00,VWS V14.00,2013-02-06 02:15:00,
2013-02-05 20:20:00,3.8,0.6,30.05,WSW,254,0.0,0.0,86,0.00,,---,0.00,VWS V14.00,2013-02-06 02:20:00,
2013-02-05 20:25:00,3.5,0.3,30.05,WSW,254,0.0,0.0,86,0.00,,---,0.00,VWS V14.00,2013-02-06 02:25:00,
2013-02-05 20:30:00,3.3,0.1,30.05,WSW,254,0.0,0.0,86,0.00,,---,0.00,VWS V14.00,2013-02-06 02:30:00,
2013-02-05 20:35:00,3.0,-0.2,30.05,WSW,254,0.0,0.0,86,0.00,,---,0.00,VWS V14.00,2013-02-06 02:35:00,
2013-02-05 20:40:00,2.7,-0.5,30.05,WSW,254,0.0,0.0,86,0.00,,---,0.00,VWS V14.00,2013-02-06 02:40:00,
2013-02-05 20:45:00,2.4,-0.8,30.05,WSW,254,0.0,0.0,86,0.00,,---,0.00,VWS V14.00,2013-02-06 02:45:00,
2013-02-05 20:50:00,2.3,-0.9,30.05,WSW,254,0.0,0.0,86,0.00,,---,0.00,VWS V14.00,2013-02-06 02:50:00,
2013-02-05 20:55:00,2.1,-1.1,30.06,WSW,254,0.0,0.0,86,0.00,,---,0.00,VWS V14.00,2013-02-06 02:55:00,
2013-02-05 21:00:00,1.9,-1.3,30.06,WSW,254,0.0,0.0,86,0.00,,---,0.00,VWS V14.00,2013-02-06 03:00:00,
2013-02-05 21:05:00,1.6,-1.6,30.06,WSW,254,0.0,0.0,86,0.00,,---,0.00,VWS V14.00,2013-02-06 03:05:00,
2013-02-05 21:10:00,1.4,-1.8,30.06,WSW,254,0.0,0.0,86,0.00,,---,0.00,VWS V14.00,2013-02-06 03:10:00,
2013-02-05 21:15:00,1.3,-1.9,30.07,WSW,254,0.0,0.0,86,0.00,,---,0.00,VWS V14.00,2013-02-06 03:15:00,
2013-02-05 21:20:00,1.1,-2.1,30.07,WSW,254,0.0,0.0,86,0.00,,---,0.00,VWS V14.00,2013-02-06 03:20:00,
2013-02-05 21:25:00,0.9,-2.3,30.07,WSW,254,0.0,0.0,86,0.00,,---,0.00,VWS V14.00,2013-02-06 03:25:00,
2013-02-05 21:30:00,0.7,-2.5,30.08,WSW,254,0.0,0.0,86,0.00,,---,0.00,VWS V14.00,2013-02-06 03:30:00,
2013-02-05 21:35:00,0.5,-2.7,30.08,WSW,254,0.0,0.0,86,0.00,,---,0.00,VWS V14.00,2013-02-06 03:35:00,
2013-02-05 21:40:00,0.4,-2.8,30.08,WSW,254,0.0,0.0,86,0.00,,---,0.00,VWS V14.00,2013-02-06 03:40:00,
2013-02-05 21:45:00,0.1,-3.1,30.08,WSW,254,0.0,0.0,86,0.00,,---,0.00,VWS V14.00,2013-02-06 03:45:00,
2013-02-05 21:50:00,-0.1,-3.5,30.08,WSW,254,0.0,0.0,85,0.00,,---,0.00,VWS V14.00,2013-02-06 03:50:00,
2013-02-05 21:55:00,-0.3,-3.7,30.08,WSW,254,0.0,0.0,85,0.00,,---,0.00,VWS V14.00,2013-02-06 03:55:00,
2013-02-05 22:00:00,-0.5,-3.9,30.08,WSW,254,0.0,0.0,85,0.00,,---,0.00,VWS V14.00,2013-02-06 04:00:00,
2013-02-05 22:05:00,-0.7,-4.1,30.08,WSW,254,0.0,0.0,85,0.00,,---,0.00,VWS V14.00,2013-02-06 04:05:00,
2013-02-05 22:10:00,-0.9,-4.3,30.08,WSW,254,0.0,0.0,85,0.00,,---,0.00,VWS V14.00,2013-02-06 04:10:00,
2013-02-05 22:15:00,-1.2,-4.6,30.08,WSW,254,0.0,0.0,85,0.00,,---,0.00,VWS V14.00,2013-02-06 04:15:00,
2013-02-05 22:20:00,-1.3,-4.7,30.08,WSW,254,0.0,0.0,85,0.00,,---,0.00,VWS V14.00,2013-02-06 04:20:00,
2013-02-05 22:25:00,-1.5,-4.9,30.08,WSW,254,0.0,0.0,85,0.00,,---,0.00,VWS V14.00,2013-02-06 04:25:00,
2013-02-05 22:30:00,-1.6,-5.0,30.08,WSW,254,0.0,0.0,85,0.00,,---,0.00,VWS V14.00,2013-02-06 04:30:00,
2013-02-05 22:35:00,-1.7,-5.1,30.09,WSW,254,0.0,0.0,85,0.00,,---,0.00,VWS V14.00,2013-02-06 04:35:00,
2013-02-05 22:40:00,-1.9,-5.3,30.08,WSW,254,0.0,0.0,85,0.00,,---,0.00,VWS V14.00,2013-02-06 04:40:00,
2013-02-05 22:45:00,-2.1,-5.5,30.09,WSW,254,0.0,0.0,85,0.00,,---,0.00,VWS V14.00,2013-02-06 04:45:00,
2013-02-05 22:50:00,-2.3,-5.7,30.09,WSW,254,0.0,0.0,85,0.00,,---,0.00,VWS V14.00,2013-02-06 04:50:00,
2013-02-05 22:55:00,-2.3,-5.7,30.10,WSW,254,0.0,0.0,85,0.00,,---,0.00,VWS V14.00,2013-02-06 04:55:00,
2013-02-05 23:00:00,-2.4,-5.8,30.11,WSW,254,0.0,0.0,85,0.00,,---,0.00,VWS V14.00,2013-02-06 05:00:00,
2013-02-05 23:05:00,-2.3,-5.4,30.11,WSW,254,0.0,0.0,86,0.00,,---,0.00,VWS V14.00,2013-02-06 05:05:00,
2013-02-05 23:10:00,-2.2,-5.3,30.11,WSW,254,0.0,0.0,86,0.00,,---,0.00,VWS V14.00,2013-02-06 05:10:00,
2013-02-05 23:15:00,-1.9,-4.8,30.11,WSW,254,0.0,0.0,87,0.00,,---,0.00,VWS V14.00,2013-02-06 05:15:00,
2013-02-05 23:20:00,-1.7,-4.6,30.11,WSW,254,0.0,0.0,87,0.00,,---,0.00,VWS V14.00,2013-02-06 05:20:00,
2013-02-05 23:25:00,-1.4,-4.1,30.11,WSW,254,0.0,0.0,88,0.00,,---,0.00,VWS V14.00,2013-02-06 05:25:00,
2013-02-05 23:30:00,-1.1,-3.8,30.11,WSW,254,0.0,0.0,88,0.00,,---,0.00,VWS V14.00,2013-02-06 05:30:00,
2013-02-05 23:35:00,-0.8,-3.5,30.11,WSW,254,0.0,0.0,88,0.00,,---,0.00,VWS V14.00,2013-02-06 05:35:00,
2013-02-05 23:40:00,-0.3,-2.8,30.11,WSW,254,0.0,0.0,89,0.00,,---,0.00,VWS V14.00,2013-02-06 05:40:00,
2013-02-05 23:45:00,-0.1,-2.5,30.11,WSW,254,0.0,0.0,89,0.00,,---,0.00,VWS V14.00,2013-02-06 05:45:00,
2013-02-05 23:50:00,0.2,-2.3,30.11,WSW,254,0.0,0.0,89,0.00,,---,0.00,VWS V14.00,2013-02-06 05:50:00,
2013-02-05 23:55:00,0.5,-2.2,30.10,WSW,254,0.0,0.0,88,0.00,,---,0.00,VWS V14.00,2013-02-06 05:55:00,